GEFSSGP_500_meanwind_096.txt.gz
Wind_Speed
4 5 4 3 3 4 4 4 4 5 5 5 6 7 8 8 8 8 9 10 10 9 9 10 10 10 10 11 11 12 13 14 14 15 15 16 16 16 16 16 16 16 16 15 15 15 14 14 13
4 5 5 4 5 3 3 4 5 6 6 6 7 8 9 9 9 10 11 10 10 11 11 11 11 12 13 13 14 15 16 17 16 16 17 18 18 17 17 17 17 16 16 16 15 15 14 13 13
5 4 5 6 7 4 4 5 6 6 7 8 9 9 10 11 11 11 11 12 12 13 14 14 14 14 15 16 16 17 18 19 19 19 19 19 19 19 20 19 18 18 17 16 16 15 14 13 12
5 6 7 7 8 6 6 7 8 8 9 10 10 11 12 13 13 13 13 14 15 15 16 16 16 17 17 18 18 19 19 20 21 21 22 22 21 21 21 21 20 19 18 17 17 16 15 13 12
6 7 8 9 9 8 9 9 9 10 11 12 13 13 14 15 16 16 16 17 18 18 19 19 20 20 21 21 22 22 22 22 22 23 23 23 23 23 22 23 22 21 20 19 18 17 16 15 13
8 9 10 10 11 10 9 9 11 12 13 14 15 16 16 17 17 18 19 20 21 22 22 22 23 23 24 25 25 26 25 25 25 25 25 25 26 25 25 24 23 23 23 21 20 19 18 16 14
10 11 12 12 11 9 9 11 12 13 14 15 16 17 17 18 19 20 21 22 23 23 24 25 25 26 27 27 27 28 28 28 28 28 27 27 28 29 28 27 26 26 25 24 23 21 19 18 17
12 13 14 14 12 12 12 13 13 14 16 17 17 18 19 19 20 21 22 23 24 25 26 26 27 27 28 28 29 30 30 30 30 30 30 30 29 30 30 29 28 27 27 26 25 24 22 21 19
13 15 16 14 14 13 14 14 14 15 17 18 19 19 20 21 22 22 23 24 25 25 26 27 27 28 28 28 29 30 31 32 32 32 32 32 31 30 31 30 30 29 27 27 27 26 24 23 21
15 16 16 14 13 13 14 14 15 15 16 18 19 20 21 22 22 23 23 23 24 24 25 25 26 26 26 27 28 29 30 31 33 34 34 34 33 32 31 31 31 31 29 28 27 26 26 25 24
16 17 17 14 12 13 13 14 15 15 16 18 19 19 20 21 21 21 22 22 22 22 22 22 22 22 23 23 24 26 27 29 30 32 33 33 34 34 33 32 32 31 30 29 29 28 28 27 26
17 18 16 12 12 12 13 14 15 17 18 18 18 19 20 21 20 20 20 20 20 20 20 20 20 21 21 21 21 22 24 25 27 29 30 31 32 33 34 33 33 32 32 31 30 29 29 28 27
18 17 14 12 11 11 13 14 16 17 18 18 18 19 20 20 20 20 19 19 19 19 19 20 20 20 21 21 21 21 21 22 23 26 28 29 31 33 34 34 33 33 33 32 31 31 30 30 29
17 15 15 13 11 12 13 14 14 15 17 17 18 19 19 19 19 19 19 19 18 19 19 19 19 20 20 20 20 20 21 21 21 22 24 26 28 30 32 33 34 33 33 33 32 32 31 31 31
15 13 13 11 11 11 13 13 13 14 15 16 17 17 17 18 18 18 18 17 17 18 18 18 19 19 19 19 19 20 20 21 21 21 22 23 25 27 30 32 33 33 33 33 33 32 32 31 31
15 14 14 12 10 10 11 11 12 13 14 14 15 15 16 17 17 17 17 17 18 18 19 19 19 19 19 19 19 19 19 20 20 20 21 22 23 24 26 29 32 33 34 34 33 33 32 32 31
14 14 13 11 10 9 9 11 11 11 11 12 13 14 15 15 16 16 17 17 18 18 19 19 20 20 20 19 19 18 18 18 18 19 20 21 21 22 24 26 28 31 33 34 33 33 33 32 32
14 13 13 11 10 10 9 10 10 9 9 10 12 13 14 15 15 16 17 17 18 19 19 20 20 21 21 20 19 18 17 17 17 17 18 19 19 20 22 24 26 28 30 32 33 33 33 33 33
14 13 12 10 9 9 8 8 8 8 9 10 11 13 14 14 15 17 17 18 19 19 20 21 21 21 21 21 20 19 18 17 16 16 16 17 17 18 20 22 24 26 28 30 31 32 33 33 32
12 12 11 9 8 9 8 7 7 7 8 9 11 12 14 15 16 17 18 18 19 20 21 22 22 22 21 20 20 19 18 17 16 16 15 15 15 16 17 19 21 23 25 27 29 30 32 32 32
12 10 9 8 8 8 7 6 5 5 7 8 10 12 14 15 15 16 17 18 19 20 21 22 22 22 21 21 20 20 19 18 17 17 16 15 14 14 15 16 18 20 22 24 27 28 30 30 31
11 9 8 8 7 7 6 4 3 3 6 8 10 12 13 13 14 15 16 17 19 20 21 22 23 23 22 22 21 21 20 19 18 17 17 15 14 12 13 14 15 18 20 22 24 26 27 28 29
9 8 8 8 7 6 4 2 2 3 5 7 9 10 11 12 13 15 16 17 19 20 21 22 23 23 23 22 22 21 20 20 19 18 17 16 14 12 12 12 13 14 17 19 22 24 26 28 29
9 8 8 7 6 5 4 1 2 3 5 6 7 8 9 11 12 14 16 17 18 20 21 23 23 24 24 23 23 22 21 21 20 19 18 16 15 13 11 11 12 12 14 16 19 21 23 25 28
9 9 9 7 7 6 4 1 2 3 4 4 5 7 9 10 12 13 15 17 18 19 21 23 23 24 24 24 23 23 22 22 21 20 19 17 16 14 12 10 10 10 11 13 15 18 20 23 25
9 9 9 8 8 7 4 2 1 1 2 3 5 6 8 9 11 13 14 16 18 19 21 22 23 24 24 24 24 23 23 22 22 21 20 18 17 15 12 10 9 8 10 11 14 15 18 21 23
7 7 7 8 8 7 5 3 2 1 1 2 4 5 7 9 11 12 14 15 17 19 20 21 23 23 24 24 24 24 23 23 22 21 21 20 18 16 14 11 9 7 7 9 11 13 16 18 21
6 7 7 7 7 6 5 4 3 2 1 1 3 4 6 8 10 12 13 15 16 18 19 20 22 23 23 24 24 24 24 23 22 21 21 21 19 18 16 13 10 8 6 6 8 10 12 15 18
7 7 7 7 7 6 5 4 3 3 2 1 1 3 5 7 9 11 13 14 16 17 19 20 21 22 23 24 24 24 23 22 22 22 21 21 20 19 17 15 12 9 7 6 7 8 9 12 15
8 8 8 8 7 7 5 4 4 3 3 1 1 3 5 7 9 11 13 14 16 17 18 19 20 22 23 23 23 24 23 22 22 22 21 21 20 19 18 16 14 12 9 7 7 7 7 9 11

GEFSSGP_500_meanwind_102.txt.gz
Wind_Speed
6 7 8 7 6 4 3 2 2 3 3 4 5 6 8 9 9 10 11 12 12 10 10 10 10 11 11 11 11 12 12 13 13 13 13 14 14 14 14 14 14 13 13 13 12 12 11 11 11
7 9 9 7 5 5 4 4 4 4 5 6 7 8 9 10 11 12 12 12 12 12 12 13 14 13 13 14 14 14 15 15 15 16 16 16 16 16 16 16 15 15 14 13 13 12 12 11 11
9 10 11 8 7 6 6 5 5 4 6 7 8 9 11 12 13 13 13 14 15 15 15 16 16 16 16 17 17 17 18 18 18 18 18 18 18 19 18 18 17 17 16 14 14 13 12 12 11
9 10 11 9 9 8 7 7 6 7 7 8 10 11 12 13 14 15 16 17 17 17 18 19 19 19 19 20 21 21 21 21 21 21 21 21 21 21 21 20 19 18 17 16 15 15 14 13 12
11 11 11 11 11 10 9 8 8 9 10 10 11 12 14 15 16 17 18 18 19 20 21 21 21 21 21 22 22 23 24 25 25 24 23 23 23 23 23 22 22 20 20 19 18 17 15 14 13
12 13 12 12 11 11 10 10 11 11 12 12 12 13 14 15 16 18 19 20 20 21 22 23 23 23 24 24 25 26 27 27 27 27 27 26 26 25 24 24 24 23 22 20 20 19 17 15 14
13 13 14 13 11 11 11 11 12 12 12 13 14 14 15 16 17 19 20 21 22 22 23 23 24 24 25 25 26 27 28 29 30 30 30 29 29 28 27 27 26 26 25 24 22 21 20 18 16
15 15 14 13 13 13 13 13 13 13 14 14 15 15 16 17 18 19 20 20 21 21 22 23 23 24 25 25 26 27 28 29 30 31 31 31 31 31 30 29 28 28 27 26 25 23 22 20 19
15 16 15 14 14 14 14 14 14 14 15 15 16 16 16 17 18 19 19 20 20 21 21 21 21 21 22 23 24 25 26 27 28 30 31 32 32 32 32 31 29 28 28 27 26 25 24 23 21
16 16 16 15 15 14 14 14 14 14 15 15 15 15 16 17 18 18 19 19 19 19 19 19 19 19 20 20 21 22 23 24 26 27 29 31 31 32 32 32 32 31 30 29 28 27 25 24 22
17 17 16 16 16 15 14 14 14 14 14 14 15 15 16 16 16 17 17 17 17 17 17 17 18 18 18 19 20 20 21 22 23 24 25 27 29 31 32 33 33 33 32 31 29 28 27 25 24
16 16 15 15 15 15 14 13 14 13 13 13 14 15 15 15 15 16 16 15 16 16 16 16 16 17 17 18 19 19 20 21 22 23 24 25 26 28 30 31 33 33 33 32 31 30 29 27 27
17 15 15 14 13 13 13 13 11 11 12 12 13 14 14 14 14 14 14 15 15 16 16 16 17 17 18 18 18 18 18 19 20 21 22 23 25 26 27 29 30 32 32 32 31 30 29 28 28
17 16 15 14 14 13 12 11 10 11 11 12 13 13 12 12 12 12 13 14 15 15 16 16 17 17 18 18 18 18 18 18 19 20 21 23 24 25 26 27 29 30 31 32 31 30 29 29 27
17 16 14 13 12 11 11 10 10 10 10 11 12 11 10 10 11 12 13 14 15 15 16 16 17 17 18 18 18 18 18 18 18 18 19 20 21 23 24 26 27 28 30 32 32 31 31 30 28
17 15 14 12 11 11 10 9 9 9 9 10 10 9 8 9 10 11 12 13 14 15 16 17 18 18 19 19 19 19 19 18 18 17 17 18 19 20 22 23 25 27 28 30 31 32 32 31 29
16 15 13 12 11 11 10 9 10 9 9 9 8 7 7 7 8 9 11 13 14 16 17 18 19 20 20 20 20 20 19 19 18 17 17 17 17 17 19 20 23 25 26 28 30 31 32 32 31
15 13 12 11 11 10 10 10 9 9 8 7 7 6 6 6 7 9 10 12 14 16 17 19 20 20 21 21 21 21 20 19 18 16 15 15 15 16 17 18 20 22 24 26 28 29 31 32 31
14 12 11 11 11 11 10 10 9 8 7 6 5 5 4 4 6 8 10 13 14 16 18 20 21 21 21 22 22 22 21 19 18 17 16 15 15 15 15 16 17 19 21 23 25 27 30 31 31
13 12 11 11 11 10 10 9 8 7 6 5 4 3 3 4 6 8 11 13 15 17 19 20 21 21 22 22 23 22 21 20 19 18 16 15 15 15 15 15 16 17 18 20 22 24 27 30 31
12 11 11 11 10 10 9 8 8 7 5 4 3 2 2 4 6 8 11 13 15 17 18 19 21 22 22 23 23 23 22 22 21 19 17 16 15 14 14 14 14 15 16 18 20 22 24 27 29
13 12 12 11 11 10 9 8 8 6 5 4 3 2 2 4 6 8 10 13 15 16 18 19 21 22 23 23 23 23 23 22 21 20 18 17 15 14 14 13 13 13 14 15 17 19 21 24 26
13 12 11 11 11 11 10 8 7 6 5 4 3 2 2 3 6 8 10 12 14 16 17 19 20 22 23 23 24 24 24 23 21 20 19 18 16 14 13 12 12 12 13 13 15 17 19 20 22
12 12 12 11 11 10 9 8 7 6 5 4 3 2 1 3 5 7 9 11 13 15 17 19 20 22 23 23 24 24 24 23 22 21 20 19 17 15 14 12 11 10 11 11 12 14 17 18 20
12 12 12 11 10 10 9 8 7 7 5 5 4 2 1 3 5 7 9 11 13 15 17 18 20 21 23 23 23 24 24 23 23 22 21 20 19 17 15 13 11 10 9 9 10 12 14 16 18
12 12 12 11 10 9 8 7 7 7 6 5 4 3 1 2 5 7 9 11 13 15 16 18 19 21 23 23 24 23 23 23 23 23 22 21 20 18 17 14 12 10 8 7 8 9 11 14 16
12 11 11 11 10 9 8 7 7 7 7 5 5 4 2 3 5 7 9 11 13 14 16 18 19 21 22 23 23 23 23 23 23 23 22 21 20 19 18 15 14 11 8 6 7 7 8 10 13
10 10 10 10 9 9 8 8 7 8 7 6 5 4 3 3 5 7 9 11 12 14 16 17 19 20 21 22 23 23 23 23 23 23 23 22 21 20 18 16 14 13 10 7 6 6 7 9 10
10 10 10 10 9 9 8 7 8 8 7 6 6 5 4 4 5 7 9 11 12 14 15 17 18 19 21 21 22 23 23 23 23 23 23 22 21 20 19 17 15 13 11 8 6 6 6 7 9
11 10 10 10 10 9 8 6 9 8 8 7 7 6 5 5 5 7 9 11 12 14 15 17 18 19 20 21 22 22 22 22 23 23 23 22 21 20 19 17 15 14 12 10 8 6 6 6 7

GEFSSGP_500_meanwind_108.txt.gz
Wind_Speed
6 6 7 7 7 6 4 3 2 2 3 4 5 5 5 7 8 9 10 10 11 11 10 11 11 11 12 12 13 13 14 15 15 15 16 16 16 16 16 16 16 16 15 14 14 13 12 11 10
7 7 7 6 6 6 5 4 4 4 4 5 6 6 7 8 9 10 10 11 12 13 13 14 14 14 14 15 16 17 17 18 17 17 17 17 17 17 17 17 17 17 16 16 15 14 13 12 10
8 7 7 7 7 7 6 6 6 5 5 6 7 7 8 9 10 11 12 13 13 14 15 15 15 16 17 18 18 19 20 21 21 21 20 20 20 19 19 19 19 18 18 17 15 15 14 13 11
8 8 7 7 7 7 7 6 6 6 6 7 8 9 9 10 11 12 13 14 14 15 16 16 17 18 19 19 20 21 22 23 23 23 22 22 23 22 22 21 20 20 19 18 17 16 15 14 13
10 9 8 7 7 7 7 7 8 8 8 9 9 10 11 12 13 13 14 15 16 16 16 17 18 19 20 21 21 23 24 25 25 25 25 24 25 25 25 23 22 22 21 20 19 17 16 15 14
11 9 8 8 9 8 7 8 8 9 10 10 10 12 13 13 14 14 15 15 16 16 17 17 18 19 20 21 23 24 25 26 27 28 28 27 27 27 27 26 24 23 22 21 21 20 19 17 16
12 10 10 9 10 10 9 9 8 9 9 10 12 13 14 14 14 15 15 15 15 16 17 18 18 18 19 20 22 23 25 26 28 29 29 29 29 29 29 27 27 26 24 24 23 22 21 19 18
13 12 11 11 10 10 10 9 9 9 9 11 12 13 13 14 14 14 14 15 15 16 17 17 17 18 19 19 20 21 23 24 26 27 28 29 30 30 30 28 27 28 26 25 25 24 22 21 21
15 13 12 12 11 11 11 10 10 10 11 12 12 12 12 13 13 14 14 14 15 15 16 16 16 16 16 17 18 19 20 22 23 24 26 28 29 29 30 30 29 29 29 28 26 26 25 24 23
16 14 13 12 12 12 11 11 11 11 12 12 11 11 12 12 13 13 13 13 14 14 14 14 14 14 15 15 16 18 19 20 21 22 23 24 26 28 28 28 29 30 29 29 28 28 27 26 24
16 15 14 12 12 12 12 12 12 12 12 11 11 11 11 12 12 12 12 12 12 12 12 13 13 13 14 14 15 16 17 18 19 20 21 22 24 26 27 27 28 29 29 30 29 28 27 26 26
17 15 14 13 11 11 12 12 12 12 11 10 10 10 11 11 10 10 11 11 11 11 11 11 12 13 13 14 15 15 16 17 17 19 20 21 22 23 25 26 27 28 28 29 30 30 28 27 26
17 15 14 12 11 12 12 12 12 11 10 10 10 10 10 9 9 9 9 10 10 10 11 11 12 13 14 14 15 15 16 16 17 18 19 20 21 22 23 24 25 26 27 28 29 30 30 28 26
16 15 13 12 12 12 12 11 12 11 10 9 9 9 8 8 8 8 8 9 9 10 11 12 12 13 14 14 15 15 16 16 16 17 17 19 20 21 22 23 24 25 26 27 28 30 30 30 28
16 15 14 13 13 12 12 12 11 10 8 8 8 8 8 7 7 7 7 7 8 9 11 12 13 13 14 15 15 16 16 16 16 16 17 17 18 19 20 21 22 23 24 25 26 28 30 31 30
16 15 14 12 12 11 11 11 10 9 8 8 8 7 7 6 6 6 6 7 8 9 10 12 13 14 14 15 16 16 16 16 16 16 16 16 16 17 18 19 20 21 22 24 25 26 28 30 31
17 15 14 13 12 11 10 10 9 8 8 8 7 6 5 5 5 5 5 6 8 9 10 12 13 14 15 16 17 17 17 17 17 16 16 16 15 15 15 16 17 18 20 21 24 25 27 29 29
16 15 14 13 12 11 10 10 9 8 8 7 6 5 4 4 4 4 5 6 7 9 10 11 13 14 16 17 18 18 18 17 17 17 17 15 14 13 13 13 14 15 17 19 21 23 25 27 28
17 15 13 13 11 10 10 10 10 8 7 6 5 4 4 4 4 4 5 6 7 8 10 11 13 14 16 18 19 19 18 18 17 17 16 15 14 12 12 12 12 13 15 16 18 20 22 25 27
16 14 13 13 11 10 9 9 9 8 7 6 5 5 4 3 3 4 5 6 7 8 10 11 13 15 16 18 19 19 19 19 18 18 17 16 13 12 11 11 11 12 13 14 16 18 20 22 25
15 14 13 12 10 9 8 8 9 7 7 6 6 4 4 3 4 4 5 6 7 8 10 12 13 15 17 18 19 19 19 19 18 18 17 16 14 12 11 10 10 10 11 12 14 15 17 20 23
14 14 12 10 9 8 8 7 8 7 7 6 5 4 4 4 4 4 5 5 7 8 10 12 14 15 16 18 19 19 20 20 19 19 18 17 15 13 11 9 9 9 9 10 12 14 16 18 21
13 12 11 9 8 8 8 7 8 7 7 6 5 5 4 4 3 4 5 6 7 8 10 12 13 15 16 17 18 19 20 20 20 19 18 17 16 14 12 10 8 8 8 9 10 12 14 16 18
12 10 9 9 9 8 8 7 7 7 7 6 6 5 5 4 4 4 5 6 7 9 10 12 13 15 16 17 18 19 19 20 20 19 19 18 16 15 12 10 9 8 7 7 8 9 11 13 16
10 9 9 9 9 9 8 8 7 8 7 6 6 6 5 5 4 5 5 6 7 9 10 12 13 14 16 17 18 18 19 19 20 20 19 18 17 15 13 11 9 8 7 6 6 8 9 11 13
9 9 9 9 10 10 8 8 8 8 8 7 7 6 6 5 5 5 6 6 7 9 10 11 13 14 16 17 17 18 18 19 19 20 19 19 17 16 15 12 10 8 7 6 6 6 8 10 12
10 9 9 9 9 8 8 8 9 9 9 8 8 7 7 6 6 6 6 6 7 8 10 11 13 14 15 16 17 17 18 18 19 19 19 19 18 16 15 13 11 9 7 6 5 5 6 8 10
9 9 9 9 9 8 7 8 10 10 9 9 9 8 8 7 7 7 6 6 7 8 10 11 12 13 14 15 16 17 18 18 18 18 18 18 18 16 15 14 12 10 8 7 6 4 4 6 8
9 9 9 9 9 8 8 8 10 10 10 10 9 9 9 8 8 7 7 7 7 8 10 11 12 13 14 15 16 16 17 17 18 18 18 18 17 16 16 15 13 11 9 8 7 4 3 4 5
9 9 9 10 10 9 9 8 10 11 10 10 10 10 10 9 9 8 7 7 8 9 10 11 12 12 13 14 15 16 16 17 17 17 17 17 17 16 15 15 13 12 10 9 7 6 3 3 4

GEFSSGP_500_meanwind_114.txt.gz
Wind_Speed
6 6 6 7 8 8 7 7 6 5 4 5 6 7 7 7 8 10 10 10 10 11 11 12 12 12 13 14 15 15 16 16 16 17 17 18 18 18 18 19 19 19 19 18 18 18 17 16 15
7 6 6 7 7 8 7 7 7 7 6 6 7 8 8 9 9 10 11 11 11 12 13 13 13 14 15 16 16 17 18 18 19 19 19 19 19 20 20 21 21 20 20 20 19 19 18 17 16
8 7 7 7 8 7 7 7 7 7 7 8 9 9 9 10 10 11 12 12 13 13 14 14 15 16 16 16 16 17 19 20 20 21 22 22 21 22 23 23 23 22 22 22 21 20 19 18 17
9 8 8 8 8 8 8 8 9 8 8 9 10 10 10 11 11 12 12 13 14 14 15 15 16 16 17 17 18 19 20 21 21 22 23 24 23 24 24 24 24 24 22 22 22 22 20 19 18
11 10 9 9 9 9 9 9 9 9 10 10 10 9 10 11 11 12 13 14 15 15 15 15 16 16 17 18 18 19 20 21 22 23 24 26 26 26 25 25 25 25 24 23 23 23 22 20 20
12 11 10 10 10 10 9 9 10 11 10 9 9 9 9 11 11 12 13 14 14 14 15 16 16 16 17 17 18 19 20 21 22 23 24 25 26 26 26 26 26 25 25 25 25 24 23 22 22
14 13 12 12 12 10 10 9 10 11 11 11 11 11 11 10 11 12 13 13 14 14 15 15 15 16 16 17 17 18 19 20 21 21 22 24 25 26 27 27 27 27 25 25 26 25 24 24 23
16 15 14 12 13 11 11 11 11 12 12 12 12 12 12 11 11 12 12 13 13 14 14 14 14 14 15 15 16 16 17 18 19 19 20 22 23 24 25 26 27 27 27 26 26 26 25 25 24
17 15 14 13 13 12 11 11 11 12 13 13 12 12 12 11 11 12 12 12 12 13 13 13 13 14 14 14 14 15 16 17 17 18 19 20 21 22 23 24 25 26 27 27 27 26 25 25 25
18 15 15 13 14 13 12 12 12 13 13 12 12 12 11 11 11 11 11 11 11 11 12 12 13 13 14 14 15 16 16 17 17 18 19 19 20 21 21 22 24 25 26 27 27 27 26 25 24
18 17 15 13 14 13 13 12 12 13 13 13 13 11 10 10 10 10 10 10 10 11 11 12 13 13 14 15 16 17 17 17 17 18 18 18 19 20 21 21 22 23 24 25 26 27 27 26 25
20 18 16 15 15 14 14 12 12 12 13 13 12 12 10 10 10 9 9 8 9 10 11 12 13 14 15 16 16 17 18 18 18 18 18 18 18 19 20 20 21 22 23 25 25 26 27 27 26
20 18 17 16 15 15 14 13 12 12 12 12 12 10 9 8 8 8 8 8 8 10 11 12 13 14 15 16 17 18 18 19 19 19 19 19 19 19 19 20 20 21 22 24 25 26 26 26 27
20 19 18 17 15 15 14 13 13 12 12 12 11 9 7 7 7 7 7 8 9 10 10 11 13 14 15 16 17 18 19 19 20 20 19 19 19 19 19 19 19 20 21 22 23 24 25 25 27
20 18 17 16 14 13 13 13 12 12 11 10 9 7 6 6 6 6 7 7 9 9 10 11 13 14 16 17 18 19 20 20 20 20 19 19 19 18 18 18 17 17 19 20 21 22 24 25 26
21 19 16 14 13 12 12 13 12 11 11 9 8 7 6 6 6 6 7 7 8 9 10 11 13 15 16 18 19 20 20 20 20 20 19 19 19 18 18 17 16 16 16 17 19 20 22 24 25
20 17 14 12 13 12 12 12 11 10 9 8 7 7 7 6 5 6 6 7 8 9 10 12 13 15 16 18 19 20 20 21 20 20 20 19 18 18 17 16 15 15 15 15 16 18 20 22 24
17 15 14 13 13 12 11 11 10 10 8 8 7 7 7 6 5 5 6 7 8 9 10 12 13 15 17 18 19 20 20 21 20 20 20 19 19 17 16 15 14 14 14 14 14 15 17 19 22
16 16 13 12 12 10 10 11 10 10 8 8 7 6 6 6 6 5 6 6 7 9 10 12 14 15 17 18 19 20 20 21 20 20 20 19 19 18 16 15 14 13 13 12 13 14 15 17 19
16 14 13 12 10 8 9 9 9 8 8 7 6 6 7 7 7 6 5 6 7 9 10 12 14 15 16 18 18 19 20 21 20 20 20 20 19 18 17 15 13 12 11 11 11 12 13 15 17
14 13 12 11 7 7 7 7 7 8 8 7 7 7 8 7 7 6 6 6 7 9 11 12 14 15 16 18 18 19 20 20 20 20 19 19 19 18 17 14 13 11 10 9 10 11 11 13 15
14 13 9 8 7 5 6 6 7 9 8 7 7 7 8 7 7 6 6 7 8 9 11 12 14 15 16 17 18 19 20 20 20 20 20 19 19 18 16 15 13 12 10 9 9 10 11 11 13
12 10 8 6 5 4 5 5 8 10 8 7 7 7 7 7 7 7 7 7 8 9 11 12 13 15 16 17 18 19 19 20 20 20 20 19 19 18 16 15 13 12 10 8 8 9 10 11 12
9 7 5 4 3 3 4 5 7 10 8 7 7 7 7 8 8 8 8 8 8 9 11 12 13 14 16 17 18 19 19 19 20 20 20 19 18 18 17 15 13 12 10 9 8 8 9 10 11
8 6 3 1 3 4 7 7 9 9 8 9 8 8 8 8 8 8 8 8 8 9 10 12 13 14 15 16 17 18 19 19 20 20 20 19 18 18 17 15 13 12 10 9 8 7 7 9 9
8 6 5 3 2 4 7 9 11 9 9 9 9 9 9 8 9 8 8 8 9 9 10 11 13 14 15 16 17 18 18 19 19 20 20 20 19 18 17 15 14 12 10 9 8 7 7 7 8
7 7 6 4 3 3 4 9 11 11 10 9 9 9 9 9 9 9 9 9 9 9 10 12 13 14 15 16 17 18 18 18 19 19 20 20 19 19 17 15 14 12 11 10 8 7 6 6 7
6 6 6 5 4 3 5 7 11 11 12 11 10 10 10 10 10 10 9 9 9 9 10 11 13 13 14 15 17 17 17 18 18 19 19 19 19 18 17 16 14 13 12 11 9 8 6 6 6
5 6 6 6 5 5 8 10 12 13 13 13 12 11 11 11 11 11 10 9 9 9 10 11 13 13 14 15 16 17 17 17 18 18 19 19 18 18 17 16 14 13 12 11 10 8 7 6 6
8 8 8 9 9 8 10 11 13 14 14 13 13 12 12 12 12 11 11 10 10 10 10 11 13 13 14 15 16 16 16 17 17 18 18 18 18 18 17 16 15 14 13 12 11 9 7 6 5

GEFSSGP_500_meanwind_120.txt.gz
Wind_Speed
5 5 5 4 5 5 4 3 2 2 2 1 1 3 5 5 6 6 7 7 8 9 9 9 10 11 11 11 12 13 14 15 16 17 18 19 20 20 20 21 22 22 22 21 21 21 21 20 20
7 7 6 6 6 6 5 3 3 3 2 2 2 5 6 7 6 6 7 7 8 8 9 10 11 12 12 13 14 14 15 16 17 18 19 20 21 21 22 22 23 23 24 23 22 22 22 21 20
10 8 8 8 8 7 5 4 4 4 4 3 3 5 6 7 7 6 8 8 8 9 10 11 12 13 13 14 15 15 16 16 18 19 20 21 22 22 23 24 24 24 25 25 25 24 22 22 21
12 10 10 9 9 8 6 5 4 3 4 4 4 6 6 6 7 7 8 9 9 10 10 11 11 12 13 13 14 15 15 16 18 19 20 21 22 24 24 24 25 25 25 26 26 25 24 23 22
13 12 12 11 11 11 9 5 3 3 3 4 4 6 7 7 7 7 8 9 9 10 10 10 10 11 11 12 13 13 14 15 16 18 19 20 20 21 23 24 26 26 26 26 26 26 25 24 24
15 14 13 12 11 10 8 5 4 4 3 4 5 7 8 8 7 7 8 8 8 8 9 9 9 10 10 11 11 12 13 14 15 16 17 18 19 21 22 23 25 26 26 26 26 27 26 26 25
17 16 15 14 12 10 8 6 6 4 4 4 6 7 8 8 8 7 8 8 7 7 8 8 8 9 9 10 11 12 13 14 15 16 16 17 18 19 21 22 23 25 26 26 26 25 26 26 25
19 17 16 15 13 11 9 7 5 6 5 6 6 7 8 8 8 8 7 7 6 6 7 7 8 9 9 10 11 11 12 13 14 15 16 16 17 18 19 20 21 23 24 25 25 25 24 25 26
20 19 17 16 14 12 10 7 6 6 6 7 7 8 8 8 8 7 6 5 5 6 6 7 8 8 9 10 11 12 12 13 14 14 14 15 16 16 17 18 19 21 23 24 25 26 25 25 26
22 20 18 16 15 14 11 10 8 8 7 7 8 8 8 8 7 7 6 5 4 4 5 7 7 9 9 10 11 12 13 14 14 14 14 14 15 15 16 17 18 19 21 22 24 24 25 25 25
22 21 19 17 16 14 12 9 8 9 7 7 8 8 8 8 7 6 4 4 4 4 5 6 8 9 10 11 12 13 13 14 14 15 15 15 15 15 16 16 17 18 19 20 22 23 24 25 25
23 21 20 17 15 13 10 8 8 8 7 7 7 8 7 6 5 4 3 3 4 5 6 7 8 9 10 12 12 13 14 14 15 15 15 15 15 16 16 16 17 17 18 19 21 22 23 24 24
23 21 21 19 16 13 11 9 8 8 7 7 8 7 6 5 4 3 2 3 4 5 7 8 9 10 11 12 13 14 14 15 15 16 16 16 17 17 17 17 17 17 18 18 19 22 22 24 25
23 23 21 19 16 14 12 10 9 8 7 7 7 7 5 4 3 2 2 3 4 5 7 8 9 9 11 12 14 14 15 16 17 17 17 17 18 18 17 17 17 16 17 17 18 20 21 23 24
22 23 20 18 15 13 11 9 8 8 8 7 7 6 5 4 3 2 2 2 4 6 7 8 9 10 11 13 14 15 16 16 17 18 18 18 18 18 17 17 16 16 16 16 17 19 20 22 22
23 22 19 17 15 12 10 9 8 8 7 7 6 6 5 4 3 2 2 3 4 5 6 8 9 10 12 13 15 16 17 17 18 19 19 19 18 18 17 17 16 15 14 14 16 17 19 20 22
20 19 18 15 15 12 10 8 8 6 6 5 5 4 4 4 3 2 2 3 4 5 6 8 9 11 12 14 15 16 17 18 18 19 19 19 19 18 17 17 16 15 14 13 14 15 16 18 20
19 18 16 14 12 11 9 8 7 6 5 4 4 4 4 3 3 3 3 4 5 5 6 7 9 11 12 14 15 16 17 18 19 19 19 19 19 18 17 17 16 15 13 13 12 13 14 16 18
17 16 14 12 11 10 8 7 6 5 4 4 3 3 3 3 3 3 3 4 5 5 6 8 9 11 12 14 15 16 17 18 19 19 19 19 19 18 18 17 16 14 13 12 11 11 12 14 16
17 13 12 11 10 8 6 6 5 4 4 3 3 3 3 3 3 3 4 5 5 5 7 8 9 11 12 14 15 16 17 18 19 19 19 19 19 19 18 17 16 14 12 10 10 10 10 12 15
13 11 10 9 9 8 6 5 4 4 4 2 2 2 2 3 3 3 4 5 5 6 7 8 9 11 12 13 15 16 17 18 18 19 19 19 19 19 18 17 16 14 12 10 9 8 9 11 12
12 10 8 7 8 6 6 4 5 4 3 2 2 2 2 2 3 4 5 5 5 6 7 8 9 11 12 13 15 16 17 18 18 19 19 19 19 19 18 18 16 14 12 10 8 7 7 9 11
11 9 7 6 7 5 5 4 3 3 3 2 2 2 2 3 4 4 4 5 6 6 7 8 9 11 12 13 14 15 16 17 18 18 19 19 19 19 18 17 16 14 12 10 8 6 6 8 9
10 10 8 6 6 4 3 3 3 2 2 1 1 1 2 3 4 4 5 5 6 6 7 8 9 10 11 12 14 15 16 17 17 18 18 19 19 18 18 17 16 14 12 11 8 6 6 7 7
10 10 7 6 5 3 3 3 2 2 2 1 1 2 2 3 4 4 5 6 6 7 7 8 9 10 11 12 13 15 15 16 17 17 18 18 18 19 18 17 15 14 12 11 9 7 5 5 6
9 8 7 6 4 4 3 2 1 1 1 2 1 2 3 3 4 5 6 6 7 7 7 8 9 10 11 12 13 15 15 16 16 16 17 17 18 18 18 17 15 14 13 11 9 7 5 4 5
8 6 6 5 4 4 3 1 0 1 3 3 3 3 4 5 6 6 7 7 7 7 7 8 9 10 11 12 13 14 15 15 16 16 16 17 17 17 17 17 16 14 12 11 10 8 6 4 4
7 6 5 5 5 5 3 2 2 3 4 4 4 4 5 6 7 7 8 8 8 8 8 8 9 10 11 12 13 14 14 15 15 15 16 16 17 17 17 17 16 14 13 11 10 9 6 4 3
6 5 5 5 5 5 4 3 3 4 5 5 5 6 7 7 8 8 8 9 9 9 9 9 9 10 11 11 13 14 14 14 14 14 15 15 16 16 16 16 16 15 14 12 10 9 7 5 4
5 4 5 5 5 5 5 4 5 6 6 6 7 7 8 9 9 9 9 10 10 10 10 10 10 11 11 12 13 14 14 14 14 14 14 14 15 15 15 15 15 15 14 12 11 9 8 6 4